Time,TemperatureF,DewpointF,PressureIn,WindDirection,WindDirectionDegrees,WindSpeedMPH,WindSpeedGustMPH,Humidity,HourlyPrecipIn,Conditions,Clouds,dailyrainin,SoftwareType,DateUTC
2013-09-13 00:00:00,76.0,69.0,-100.00,NE,41,3.0,-999.0,81,0.00,,,0.41,,2013-09-13 05:00:00,
2013-09-13 00:43:00,76.0,69.0,-100.00,NE,41,3.0,-999.0,81,0.00,,,0.41,,2013-09-13 05:43:00,
2013-09-13 00:53:00,76.0,69.0,-100.00,NE,41,3.0,-999.0,81,0.00,,,0.41,,2013-09-13 05:53:00,
2013-09-13 01:00:00,77.0,69.0,-100.00,North,1,4.0,-999.0,77,0.00,,,0.41,,2013-09-13 06:00:00,
2013-09-13 01:42:00,77.0,69.0,-100.00,North,1,4.0,-999.0,77,0.00,,,0.41,,2013-09-13 06:42:00,
2013-09-13 01:52:00,77.0,69.0,-100.00,North,1,4.0,-999.0,77,0.00,,,0.41,,2013-09-13 06:52:00,
2013-09-13 02:00:00,76.0,69.0,-100.00,NNW,342,4.0,-999.0,79,0.00,,,0.41,,2013-09-13 07:00:00,
2013-09-13 02:43:00,76.0,69.0,-100.00,NNW,342,4.0,-999.0,79,0.00,,,0.41,,2013-09-13 07:43:00,
2013-09-13 02:52:00,76.0,69.0,-100.00,NNW,342,4.0,-999.0,79,0.00,,,0.41,,2013-09-13 07:52:00,
2013-09-13 03:00:00,77.0,69.0,-100.00,North,359,3.0,-999.0,78,0.00,,,0.41,,2013-09-13 08:00:00,
2013-09-13 03:42:00,77.0,69.0,-100.00,North,359,3.0,-999.0,78,0.00,,,0.41,,2013-09-13 08:42:00,
2013-09-13 03:52:00,77.0,69.0,-100.00,North,359,3.0,-999.0,78,0.00,,,0.41,,2013-09-13 08:52:00,
2013-09-13 04:00:00,75.0,69.0,-100.00,NNW,341,2.0,-999.0,82,0.00,,,0.41,,2013-09-13 09:00:00,
2013-09-13 04:43:00,75.0,69.0,-100.00,NNW,341,2.0,-999.0,82,0.00,,,0.41,,2013-09-13 09:43:00,
2013-09-13 04:54:00,75.0,69.0,-100.00,NNW,341,2.0,-999.0,82,0.00,,,0.41,,2013-09-13 09:54:00,
2013-09-13 05:00:00,75.0,69.0,-100.00,NNW,343,2.0,-999.0,83,0.00,,,0.41,,2013-09-13 10:00:00,
2013-09-13 05:42:00,75.0,69.0,-100.00,NNW,343,2.0,-999.0,83,0.00,,,0.41,,2013-09-13 10:42:00,
2013-09-13 05:53:00,75.0,69.0,-100.00,NNW,343,2.0,-999.0,83,0.00,,,0.41,,2013-09-13 10:53:00,
2013-09-13 06:00:00,73.0,69.0,-100.00,West,261,1.0,-999.0,87,0.00,,,0.41,,2013-09-13 11:00:00,
2013-09-13 06:43:00,73.0,69.0,-100.00,West,261,1.0,-999.0,87,0.00,,,0.41,,2013-09-13 11:43:00,
2013-09-13 06:52:00,73.0,69.0,-100.00,West,261,1.0,-999.0,87,0.00,,,0.41,,2013-09-13 11:52:00,
2013-09-13 07:00:00,70.0,68.0,-100.00,East,84,1.0,-999.0,92,0.00,,,0.41,,2013-09-13 12:00:00,
2013-09-13 07:42:00,70.0,68.0,-100.00,East,84,1.0,-999.0,92,0.00,,,0.41,,2013-09-13 12:42:00,
2013-09-13 07:52:00,70.0,68.0,-100.00,East,84,1.0,-999.0,92,0.00,,,0.41,,2013-09-13 12:52:00,
2013-09-13 08:00:00,73.0,70.0,-100.00,ENE,75,1.0,-999.0,89,0.00,,,0.41,,2013-09-13 13:00:00,
2013-09-13 08:42:00,73.0,70.0,-100.00,ENE,75,1.0,-999.0,89,0.00,,,0.41,,2013-09-13 13:42:00,
2013-09-13 08:52:00,73.0,70.0,-100.00,ENE,75,1.0,-999.0,89,0.00,,,0.41,,2013-09-13 13:52:00,
2013-09-13 09:00:00,77.0,70.0,-100.00,ENE,65,1.0,-999.0,80,0.00,,,0.41,,2013-09-13 14:00:00,
2013-09-13 09:42:00,77.0,70.0,-100.00,ENE,65,1.0,-999.0,80,0.00,,,0.41,,2013-09-13 14:42:00,
2013-09-13 09:52:00,77.0,70.0,-100.00,ENE,65,1.0,-999.0,80,0.00,,,0.41,,2013-09-13 14:52:00,
2013-09-13 10:00:00,82.0,69.0,-100.00,East,81,9.0,-999.0,65,0.00,,,0.41,,2013-09-13 15:00:00,
2013-09-13 10:43:00,82.0,69.0,-100.00,East,81,9.0,-999.0,65,0.00,,,0.41,,2013-09-13 15:43:00,
2013-09-13 10:53:00,82.0,69.0,-100.00,East,81,9.0,-999.0,65,0.00,,,0.41,,2013-09-13 15:53:00,
2013-09-13 11:00:00,85.0,69.0,-100.00,East,92,7.0,-999.0,59,0.00,,,0.41,,2013-09-13 16:00:00,
2013-09-13 11:43:00,85.0,69.0,-100.00,East,92,7.0,-999.0,59,0.00,,,0.41,,2013-09-13 16:43:00,
2013-09-13 11:54:00,85.0,69.0,-100.00,East,92,7.0,-999.0,59,0.00,,,0.41,,2013-09-13 16:54:00,
2013-09-13 12:00:00,86.0,69.0,-100.00,East,81,5.0,-999.0,57,0.00,,,0.41,,2013-09-13 17:00:00,
2013-09-13 12:44:00,86.0,69.0,-100.00,East,81,5.0,-999.0,57,0.00,,,0.41,,2013-09-13 17:44:00,
2013-09-13 12:53:00,86.0,69.0,-100.00,East,81,5.0,-999.0,57,0.00,,,0.41,,2013-09-13 17:53:00,
2013-09-13 14:00:00,89.0,69.0,-100.00,ESE,114,3.0,-999.0,51,0.00,,,0.41,,2013-09-13 19:00:00,
2013-09-13 14:43:00,89.0,69.0,-100.00,ESE,114,3.0,-999.0,51,0.00,,,0.41,,2013-09-13 19:43:00,
2013-09-13 14:52:00,89.0,69.0,-100.00,ESE,114,3.0,-999.0,51,0.00,,,0.41,,2013-09-13 19:52:00,
2013-09-13 17:00:00,76.0,71.0,-100.00,NE,51,9.0,-999.0,86,0.01,,,0.19,,2013-09-13 22:00:00,
2013-09-13 17:43:00,76.0,71.0,-100.00,NE,51,9.0,-999.0,86,0.01,,,0.19,,2013-09-13 22:43:00,
2013-09-13 17:53:00,76.0,71.0,-100.00,NE,51,9.0,-999.0,86,0.01,,,0.19,,2013-09-13 22:53:00,
2013-09-13 18:00:00,75.0,72.0,-100.00,NW,309,3.0,-999.0,91,0.03,,,0.22,,2013-09-13 23:00:00,
2013-09-13 18:43:00,75.0,72.0,-100.00,NW,309,3.0,-999.0,91,0.03,,,0.22,,2013-09-13 23:43:00,
2013-09-13 18:53:00,75.0,72.0,-100.00,NW,309,3.0,-999.0,91,0.03,,,0.22,,2013-09-13 23:53:00,
2013-09-13 19:00:00,75.0,74.0,-100.00,North,10,8.0,-999.0,95,0.01,,,0.23,,2013-09-14 00:00:00,
2013-09-13 19:42:00,75.0,74.0,-100.00,North,10,8.0,-999.0,95,0.01,,,0.23,,2013-09-14 00:42:00,
2013-09-13 19:52:00,75.0,74.0,-100.00,North,10,8.0,-999.0,95,0.01,,,0.23,,2013-09-14 00:52:00,
2013-09-13 20:00:00,75.0,74.0,-100.00,NNE,17,5.0,-999.0,95,0.00,,,0.23,,2013-09-14 01:00:00,
2013-09-13 20:42:00,75.0,74.0,-100.00,NNE,17,5.0,-999.0,95,0.00,,,0.23,,2013-09-14 01:42:00,
2013-09-13 20:52:00,75.0,74.0,-100.00,NNE,17,5.0,-999.0,95,0.00,,,0.23,,2013-09-14 01:52:00,
2013-09-13 21:00:00,76.0,71.0,-100.00,NNE,22,4.0,-999.0,84,0.00,,,0.23,,2013-09-14 02:00:00,
2013-09-13 21:42:00,76.0,71.0,-100.00,NNE,22,4.0,-999.0,84,0.00,,,0.23,,2013-09-14 02:42:00,
2013-09-13 21:52:00,76.0,71.0,-100.00,NNE,22,4.0,-999.0,84,0.00,,,0.23,,2013-09-14 02:52:00,
2013-09-13 22:00:00,74.0,70.0,-100.00,North,7,2.0,-999.0,88,0.00,,,0.23,,2013-09-14 03:00:00,
2013-09-13 22:45:00,74.0,70.0,-100.00,North,7,2.0,-999.0,88,0.00,,,0.23,,2013-09-14 03:45:00,
2013-09-13 22:55:00,74.0,70.0,-100.00,North,7,2.0,-999.0,88,0.00,,,0.23,,2013-09-14 03:55:00,
2013-09-13 23:00:00,71.0,68.0,-100.00,SSE,161,3.0,-999.0,91,0.00,,,0.23,,2013-09-14 04:00:00,
2013-09-13 23:43:00,71.0,68.0,-100.00,SSE,161,3.0,-999.0,91,0.00,,,0.23,,2013-09-14 04:43:00,
2013-09-13 23:54:00,71.0,68.0,-100.00,SSE,161,3.0,-999.0,91,0.00,,,0.23,,2013-09-14 04:54:00,